Regional Weather Roundup
Issued by NWS

Home | Current Version | Previous Version | Graphics & Text | Print | Product List | Glossary On
Versions: 1 2 3 4 5 6 7 8 9 10 11 12 13 14 15 16 17 18 19 20 21 22 23 24 25 26 27 28 29 30 31 32 33 34 35 36 37 38 39 40 41 42 43 44 45 46 47 48 49 50
000
ASUS43 KTOP 190759
RWRKS

WEATHER ROUNDUP FOR KANSAS
NATIONAL WEATHER SERVICE GOODLAND KS
200 AM CST SUN FEB 19 2017

NOTE:  "FAIR" INDICATES FEW OR NO CLOUDS BELOW 12,000 FEET WITH NO
SIGNIFICANT WEATHER AND/OR OBSTRUCTIONS TO VISIBILITY.

KSZ001>006-013>018-027>032-041>047-190900-
NORTHWEST KANSAS

CITY           SKY/WX    TMP DP  RH WIND       PRES   REMARKS
GOODLAND       CLOUDY    48  34  58 S20       29.72S
HAYS           CLOUDY    46  44  93 S6        29.83R
HILL CITY      PTCLDY    50  43  77 S8        29.80R
RUSSELL        CLOUDY    49  46  90 S14       29.81R
$$

KSZ061>065-074>080-084>089-190900-
SOUTHWEST KANSAS

CITY           SKY/WX    TMP DP  RH WIND       PRES   REMARKS
DODGE CITY     PTCLDY    47  44  90 S13       29.82F
ELKHART          N/A     43  35  73 S10         N/A
GARDEN CITY    PTCLDY    42  38  85 SE8       29.80S
GREAT BEND     PTCLDY    46  45  96 S8        29.84R FOG
LIBERAL        CLOUDY    46  39  76 SE12      29.80F
$$

KSZ066>073-081>083-090>101-190900-
SOUTHEAST KANSAS

CITY           SKY/WX    TMP DP  RH WIND       PRES   REMARKS
CHANUTE        FOG       39  39 100 CALM      29.91R VSB<1/4
COFFEYVILLE    FOG       41  41 100 CALM      29.90S VSB 1/4
HUTCHINSON     PTCLDY    49  47  93 S8        29.85R
MEDICINE LODGE   N/A     47  45  93 SE5       29.86S
NEWTON         CLOUDY    44  43  96 S8        29.87R
PARSONS        FOG       39  39 100 CALM      29.91R VSB 1/4
WICHITA INTL   PTCLDY    44  43  96 S7        29.86R
WICHITA JABRA  CLOUDY    48  47  96 S9        29.86R
WINFIELD       PTCLDY    50  47  89 SE3       29.87S
$$

KSZ007>012-019>026-033>040-048>060-102>105-190900-
NORTHEAST KANSAS

CITY           SKY/WX    TMP DP  RH WIND       PRES   REMARKS
CONCORDIA      PTCLDY    53  48  83 S21       29.82R
EMPORIA        CLEAR     47  46  97 SE9       29.86F FOG
LAWRENCE       CLEAR     42  42 100 CALM      29.90R
MANHATTAN      PTCLDY    50  46  86 S5        29.85F
OLATHE IND     CLEAR     46  45  96 S3        29.91R FOG
OLATHE EXE     CLEAR     48  48 100 S5        29.90R
SALINA         PTCLDY    51  47  86 S10       29.84R
TOPEKA BILLARD PTCLDY    49  45  86 CALM      29.89R
TOPEKA FORBES  CLEAR     49  46  90 S5        29.89R
$$




USA.gov is the U.S. government's official web portal to all federal, state and local government web resources and services.